STARLINK-1792, 46693

Orbit data source: Space-Track

STARLINK-1792, 46693 is a payload satellite owned by SpaceX/Seattle (US) in LEO that was launched on Sun, 18 Oct 2020 UTC via an FALCON 9 launch vehicle from the Air Force Eastern Test Range (AFETR). Payloads include a variety of satellites, spacecraft, and rockets equipped with specific instruments for various scientific and technological missions. These include communications satellites like Starlink; space stations such as the ISS; scientific satellites like the Hubble; Earth observation satellites from companies like Planet Labs, Umbra, and HawkEye 360; GPS; miniature CubeSats for education and research; and military/defense satellites.

Loading next visibility...
STARLINK-1792 details
Identifier
46693, 2020-073Z
Orbit
LEO
Last TLE update8 hours ago
Origin
Flag of USSpaceX/Seattle (US)
ManufacturerSpaceX/Seattle
MissionPartially operational Commercial Communications
Bus & MotorSTARLINK, Unknown motor
Mass260 kg wet, ~248 kg dry
Launch date (UTC)
2020-10-18 (4 years ago)
Launch vehicle
FALCON 9
Launch site
Air Force Eastern Test Range (AFETR)
Object type
Payload
Rocket body
Debris
Shape & HBRBox + 1 Pan, 8.86 m
Radar Cross Section13.562 m², Large (>1 m²)

Expand to show TLE details & history

TLE from 8 hours ago
0 STARLINK-1792
1 46693U 20073Z   24361.26486668  .00129923  00000-0  45920-2 0  9990
2 46693  53.0358  39.1933 0002966  69.6869 290.4448 15.28226206231190
Epoch: 2024-12-26T06:21Z
Definitive object data (Epoch: 2024-12-26T06:21:24.481Z)
Latitude0.00001°
Longitude-151.40545°
Altitude481.29 km
Speed7.626 km/s
True Right ascension02h 36m 46s
True Declination0° 00' 00"
Sunlit
Object was in full shadow at TLE epoch
Visualization TLE readout
Latitude-22.63905°
Longitude-171.08843°
Altitude487.614 km
Speed7.621 km/s
Apparent Right ascension01h 21m 45s
Apparent Declination-30° 48' 02"
Sunlit
Object is in daylight
Visualization observer readout
Local Sidereal Time13:26:33
Azimuth6.485° NNE
Elevation-80.832°
Doppler factor1
Orbital elements
Apogee altitude483.426 km
Perigee altitude479.357 km
Semi-major axis6,859.528 km
Eccentricity0.0002966
Inclination53.0358°
RAAN39.1933°
Arg. of periapsis69.6869°
True anomaly290.41295°
Mean anomaly290.4448°
Eccentric anomaly290.42887°
Mean motion3.82034 °/min
BSTAR0.004592
Orbital period94.23 mins
Loading maneuver chart data...
Loading historical data...
Loading historical data...
Loading historical data...
Loading historical data...
Loading historical data...
Loading historical data...
Loading historical data...

STARLINK-1792 Visibility forecast

Observer location: undefined°, undefined

Span
Click to sort rows by Start time (UTC) header in descending order
Start Az.
Max El. time (UTC)
Max El. Az.
Max El.
End time (UTC)
End Az.
5 mins2024-12-27 04:28:46.167Z183.22° SSW2024-12-27 04:31:46.167Z124.531° SE22.047°2024-12-27 04:33:46.167Z83.948° E
5 mins2024-12-27 06:07:46.167Z272.211° WNW2024-12-27 06:09:46.167Z342.799° N32.599°2024-12-27 06:12:46.167Z37.752° NE
5 mins2024-12-27 11:04:46.167Z342.938° N2024-12-27 11:06:46.167Z31.519° NE24.568°2024-12-27 11:09:46.167Z87.826° E
5 mins2024-12-27 12:42:46.167Z286.611° WNW2024-12-27 12:44:46.167Z227.081° WSW34.33°2024-12-27 12:47:46.167Z156.378° SSE
|